Regional Weather Roundup
Issued by NWS Austin/San Antonio, TX

Home | Current Version | Previous Version | Text Only | Print | Product List | Glossary On
Versions: 1 2 3 4 5 6 7 8 9 10 11 12 13 14 15 16 17 18 19 20 21 22 23 24 25 26 27 28 29 30 31 32 33 34 35 36 37 38 39 40 41 42 43 44 45 46 47 48 49 50
000
ASUS44 KEWX 190101
RWREWX
SOUTH TEXAS REGIONAL WEATHER ROUNDUP
NATIONAL WEATHER SERVICE AUSTIN/SAN ANTONIO TX
800 PM CDT WED OCT 18 2017

NOTE: "FAIR" INDICATED FEW OR NO CLOUDS BELOW 12,000 FEET WITH NO
SIGNIFICANT WEATHER AND/OR OBSTRUCTIONS TO VISIBILITY.

* - THESE STATIONS ARE NOT NWS OR FAA STATIONS...AND ARE NOT SUBJECT
    TO NWS AND FAA QUALITY CONTROL.

TXZ171-172-183>190-190200-
TEXAS HILL COUNTRY AND EDWARDS PLATEAU

CITY           SKY/WX    TMP DP  RH WIND       PRES   REMARKS
JUNCTION       PTCLDY    71  44  37 S7        30.09R
*LLANO         CLOUDY    72  45  37 CALM      30.11R
BURNET         CLOUDY    70  46  42 SE3       30.12R
*HORSESHOE BAY CLOUDY    68  48  47 SE5       30.09S
*KERRVILLE     PTCLDY    65  50  58 CALM      30.11R
*FREDERICKSBRG CLOUDY    67  44  43 SE3       30.11R
*ROCKSPRINGS   NOT AVBL
*BOERNE STAGE  CLOUDY    61  46  59 CALM      30.12R
*CASTROVILLE   CLOUDY    73  44  35 SE3       30.09S
HONDO          PTCLDY    70  49  47 SE3       30.08S
*UVALDE        PTCLDY    68  50  53 E5        30.08S
DEL RIO        PTCLDY    71  52  50 SE9       30.04R
LAUGHLIN AFB   MOCLDY    67  54  63 S8        30.05R
CARRIZO SPRGS  CLOUDY    64  55  72 SE3       30.05S
*EAGLE PASS    NOT AVBL
$$

TXZ173-191>194-202-209-217>225-228-190200-
CENTRAL AND SOUTH CENTRAL TEXAS

CITY           SKY/WX    TMP DP  RH WIND       PRES   REMARKS
GEORGETOWN     NOT AVBL
AUSTIN/BERGSTM CLOUDY    61  54  77 CALM      30.09R
AUSTIN/MABRY   CLOUDY    71  49  45 E3        30.10R
*AUSTIN/EXEC   CLOUDY    70  48  46 CALM      30.10R
*LAGO VISTA    CLOUDY    71  48  43 SE3       30.11R
SAN MARCOS       N/A    N/A N/A N/A MISG        N/A
NEW BRAUNFELS  CLOUDY    65  53  65 E3        30.07R
RANDOLPH AFB     N/A     68  51  54 E5        30.09R
PT SAN ANTONIO CLOUDY    66  50  57 CALM      30.06S
SAN ANTONIO    CLOUDY    70  48  45 SE5       30.09R
STINSON FIELD  CLOUDY    69  52  54 CALM      30.06R
*LA GRANGE     CLEAR     68  55  64 CALM      30.07S
*GIDDINGS      CLEAR     64  48  54 E3        30.09S
*GONZALES      CLEAR     71  54  54 CALM      30.08R
$$

TXZ163>164-176>182-195>201-210>213-226-227-235-190200-
SOUTHEAST TEXAS

CITY           SKY/WX    TMP DP  RH WIND       PRES   REMARKS
COLLEGE STN    CLEAR     70  52  52 SE3       30.10R
*BRYAN         CLEAR     66  49  53 SE3       30.12R
*CALDWELL      CLEAR     63  52  67 E3        30.10S
*CROCKETT        N/A     61  54  77 CALM      30.15R
*BRENHAM       CLEAR     69  55  60 CALM      30.11S
HUNTSVILLE     CLEAR     66  54  65 CALM      30.12R
CONROE         CLEAR     62  59  90 CALM      30.12R
HOUSTON BUSH   PTCLDY    71  62  73 SE9       30.11R
HOUSTON HOBBY  MOCLDY    74  64  71 E6        30.11R
*HOUSTON SW AP CLEAR     67  60  80 SE3       30.12R
PEARLAND       CLEAR     73  63  70 E7        30.13R
HOUSTON HOOKS  CLEAR     71  59  65 E5        30.11R
ELLINGTON FLD  NOT AVBL
SUGAR LAND     CLEAR     75  60  59 SE8       30.10R
*HOUSTON EXEC  CLEAR     66  55  68 SE5       30.11S
*CLEVELAND MUN CLEAR     64  61  91 CALM      30.12S
*WHARTON       CLEAR     69  61  75 SE6       30.11R
*COLUMBUS      FAIR      64  53  68 CALM      30.10S
*EAGLE LAKE    CLEAR     68  56  66 E5        30.09S
$$

TXZ214>216-236>238-190200-
THE UPPER TEXAS COAST

CITY           SKY/WX    TMP DP  RH WIND       PRES   REMARKS
*ORANGE        CLEAR     64  61  90 CALM      30.15R
PORT ARTHUR    CLEAR     66  61  84 SE3       30.13R
GALVESTON      CLEAR     75  65  70 E7        30.12R
ANGLETON       CLEAR     70  61  73 E5        30.12R
*BAY CITY      LGT RAIN  69  62  78 E5        30.10R VSB 1/2
PALACIOS       CLEAR     67  62  84 E7        30.09R
$$

TXZ229>234-239>247-190200-
TEXAS COASTAL BEND AND RIO GRANDE PLAINS

CITY           SKY/WX    TMP DP  RH WIND       PRES   REMARKS
VICTORIA       CLEAR     68  59  73 SE8       30.08R
*BEEVILLE      CLEAR     70  55  58 SE7       30.08R
ROCKPORT       CLEAR     73  64  73 E9        30.06S
*PORT ARANSAS  NOT AVBL
*PORT LAVACA   CLEAR     69  63  80 SE6       30.09S
*INGLESIDE     NOT AVBL
CORPUS CHRISTI MOCLDY    71  63  75 E7        30.08R
CORPUS NAS     MOCLDY    75  64  68 E7        30.07R
*ROBSTOWN      CLEAR     73  60  63 E9        30.08R
ALICE          CLEAR     72  57  59 E7        30.07R
KINGSVILLE NAS MOCLDY    72  63  73 E7        30.07R
COTULLA        CLOUDY    73  49  42 E7        30.06R
*FAITH RANCH   CLEAR     70  54  56 E5        30.06S
LAREDO         CLOUDY    75  55  49 E6        30.06R
$$

TXZ248>255-190200-
DEEP SOUTH TEXAS

CITY           SKY/WX    TMP DP  RH WIND       PRES   REMARKS
BROWNSVILLE    CLEAR     74  66  76 E6        30.07R
PORT ISABEL    CLEAR     74  66  76 E5        30.06R
*SOUTH PADRE   NOT AVBL
HARLINGEN      CLEAR     71  65  81 E8        30.06R
*HEBBRONVILLE  CLEAR     74  49  41 SE7       30.07R
MCALLEN        CLEAR     79  62  56 E12       30.06R
*WESLACO       CLEAR     75  62  64 E6        30.06R
FALFURRIAS     CLEAR     72  58  63 E5        30.07R
EDINBURG       CLEAR     75  62  63 E7        30.07R
*ZAPATA        CLEAR     72  57  59 CALM      30.05R
$$

TXZ213>215-236>238-242>244-246-247-251-254-255-190200-
CMAN STATIONS

STATION/POSITION TIME  TEMP    WIND        PRES    WAVE
                       AIR SEA DIR/SP/G            HT/PER
                 (UTC) (F)     (DEG/KT/KT) (MB)    (FT/S)
SABINE PASS      0024   74 77  120/  6/  8 1021.6
SEA RIM ST PARK  0000   72     100/  5/  6 1020.4
NORTH JETTY/GLS  0024      78   90/  8/  9 1019.3
EAGLE POINT      0024   74 72  120/  6/  9 1019.9
MORGANS POINT    0024   74 78  120/  5/  8 1019.7
PORT O`CONNOR    0024   75 76  110/ 10/ 11 1018.3
MALAQUITE BEACH  0024   77 80   90/ 10/ 13 1017.7
BAFFIN BAY       0024   75 76   80/  8/  9 1018.2
PORT ISABEL      0024   77 79   40/  4/  9 1017.8
$$



USA.gov is the U.S. government's official web portal to all federal, state and local government web resources and services.